Hourly Data Report for October 04, 2016

All times are specified in Local Standard Time (LST). Add 1 hour to adjust for Daylight Saving Time where and when it is observed.

CLYDE RIVER A
NUNAVUT

70°29'09.000" N
68°31'01.000" W
26.50 m
2400804
71090
YCY

Download Data

Hourly Data (October 2016)
Hourly Data Report for October 4, 2016
Temp Definition
°C
Dew Point Temp Definition
°C
Rel Hum Definition
%
Wind Dir Definition
10's deg

Wind Spd Definition
km/h
Visibility Definition
km
Stn Press Definition
kPa
Hmdx Definition


Wind Chill Definition


Weather Definition


TIME
00:00 Legend Double Dagger -3.8 -7.6 75 28 9 16.1 100.03   -8 LegendNANA
01:00 Legend Double Dagger -4.0 -7.0 80 28 11 16.1 100.01   -8 LegendNANA
02:00 Legend Double Dagger -3.6 -6.1 83 29 9 16.1 100.00   -7 LegendNANA
03:00 Legend Double Dagger -4.5 -6.0 89 33 15 16.1 99.96   -10 LegendNANA
04:00 Legend Double Dagger -4.3 -5.7 90 32 15 16.1 99.95   -10 LegendNANA
05:00 Legend Double Dagger -3.6 -5.2 89 29 9 16.1 99.93   -7 LegendNANA
06:00 Legend Double Dagger -3.0 -4.7 88 23 4 16.1 99.91   -5 LegendNANA
07:00 Legend Double Dagger -2.1 -3.7 89 25 9 16.1 99.86   -6 LegendNANA
08:00 Legend Double Dagger -1.3 -3.6 84 23 5 16.1 99.87   -3 LegendNANA
09:00 Legend Double Dagger -1.2 -3.1 87   0 16.1 99.86     LegendNANA
10:00 Legend Double Dagger -1.0 -3.0 87 35 4 16.1 99.81   -2 LegendNANA
11:00 Legend Double Dagger -0.1 -2.9 81 4 5 16.1 99.79   -2 LegendNANA
12:00 Legend Double Dagger 0.3 -2.8 80 3 9 16.1 99.74     LegendNANA
13:00 Legend Double Dagger 0.6 -1.1 89 5 9 16.1 99.73     LegendNANA
14:00 Legend Double Dagger 0.7 -1.0 88 8 17 16.1 99.74     LegendNANA
15:00 Legend Double Dagger 0.2 -1.6 88 9 13 16.1 99.77     LegendNANA
16:00 Legend Double Dagger 0.4 -1.5 87 9 15 16.1 99.78     LegendNANA
17:00 Legend Double Dagger 0.3 -2.1 84 8 11 16.1 99.78     Rain
18:00 Legend Double Dagger 0.0 -2.7 82 7 15 16.1 99.79   -4 LegendNANA
19:00 Legend Double Dagger 0.1 -2.3 84 7 9 16.1 99.81     LegendNANA
20:00 Legend Double Dagger 0.0 -2.9 81 5 13 16.1 99.82   -4 LegendNANA
21:00 Legend Double Dagger 0.0 -2.9 81 4 13 16.1 99.86   -4 LegendNANA
22:00 Legend Double Dagger 0.0 -2.9 81 2 11 16.1 99.89   -4 LegendNANA
23:00 Legend Double Dagger -0.2 -2.9 82 1 11 16.1 99.92   -4 LegendNANA

Notes on Data Quality.

Legend

  • E = Estimated
  • M = Missing
  • NA = Not Available
  • ‡ = Partner data that is not subject to review by the National Climate Archives
Date modified: